Location: Pine Mountain Observatory
(43.7910°N, 120.9377°W)
Time: 19:27:06
(UTC-08:00)

Daily predictions for brighter satellites

Satellite Brightness Start Highest point End
(mag) Time Altitude Azimuth Time Altitude Azimuth Time Altitude Azimuth
CENTAUR R/B 4.0 16:50:55 10° NNW 16:57:09 27° NNE 17:03:51 10° E
IRAS Rocket 4.3 16:53:05 10° SE 16:58:24 54° ENE 17:03:44 10° N
Cosmos 2369 Rocket 4.5 16:58:05 10° WNW 17:00:34 13° NW 17:03:04 10° NNW
Cosmos 1697 Rocket 3.9 16:58:15 10° SSE 17:02:32 23° E 17:06:50 10° NE
Cosmos 2279 Rocket 4.0 16:57:33 10° S 17:03:47 76° E 17:10:04 10° N
CZ-4 R/B 2.1 17:00:25 10° SE 17:03:49 30° ENE 17:07:18 10° N
MSX 4.3 17:02:35 10° S 17:08:20 70° WSW 17:14:07 10° NNW
Ariane Rocket 3.0 17:08:08 10° SSE 17:13:06 61° ENE 17:18:05 10° N
ERS-2 3.8 17:11:24 10° E 17:13:33 15° ENE 17:15:42 10° NNE
Cosmos 2082 3.7 17:09:43 10° NNW 17:15:18 60° ENE 17:20:51 10° SE
Meteor 1-19 Rocket 4.3 17:10:56 10° S 17:16:35 69° E 17:22:22 10° NNE
Cosmos 1536 Rocket 3.8 17:14:36 10° SSE 17:18:45 45° E 17:22:54 10° NNE
SMAP 3.0 17:14:29 10° SSE 17:19:05 66° ENE 17:23:43 10° N
Cosmos 389 Rocket 3.6 17:20:21 10° NNW 17:23:43 47° W 17:27:01 10° S
Gblst 52 Del rocket 4.4 17:19:09 10° WNW 17:24:37 57° NNE 17:30:34 10° ESE
Cosmos 1269 Rocket 4.2 17:19:57 10° NNW 17:25:08 51° ENE 17:30:16 10° SE
Cosmos 1125 Rocket 3.6 17:20:53 10° S 17:26:04 58° ESE 17:31:16 10° NNE
Cosmos 2227 Rocket 2.2 17:20:32 10° NNW 17:26:14 90° SW 17:31:53 10° SSE
Cosmos 1271 Rocket 3.2 17:23:57 10° NNW 17:27:43 63° W 17:31:32 10° S
CORIOLIS 4.1 17:22:43 10° SSE 17:28:06 70° ENE 17:33:28 10° N
USA 238 DEB 4.0 17:22:31 10° NW 17:29:38 77° WSW 17:36:49 10° SSE
USA 238 4.0 17:22:38 10° NW 17:29:45 77° WSW 17:36:55 10° SSE
SKYMED 2 4.5 17:28:41 10° NE 17:32:28 28° E 17:36:13 10° SSE
Cosmos 1048 Rocket 4.0 17:27:32 10° NNW 17:32:56 73° ENE 17:38:17 10° SSE
ALOS 3.1 17:30:25 10° SE 17:34:24 28° ENE 17:38:22 10° N
USA 161 4.0 17:33:43 10° NNW 17:36:07 22° WNW 17:38:33 10° SW
Cosmos 372 Rocket 4.0 17:32:11 10° S 17:37:20 69° ESE 17:42:30 10° NNE
Meteor 2-9 Rocket 4.1 17:34:18 10° N 17:39:50 84° E 17:45:11 10° S
Cosmos 1666 3.9 17:39:08 10° NNW 17:42:44 45° W 17:46:18 10° SSW
Cosmos 1980 Rocket 3.1 17:39:08 10° SSE 17:43:56 29° ESE 17:46:52 19° ENE
Cosmos 1484 Rocket 3.8 17:45:42 10° S 17:49:36 50° W 17:53:32 10° NNW
Cosmos 2297 Rocket 2.6 17:46:58 10° NNW 17:52:35 66° WSW 17:58:10 10° SSE
Meteor 1-23 Rocket 4.2 17:47:30 10° S 17:53:11 66° E 17:58:49 10° NNE
Cosmos 1656 3.6 17:47:43 10° SSW 17:53:18 87° ESE 17:58:29 12° NNE
Cosmos 1455 Rocket 4.3 17:49:10 10° NNW 17:53:21 44° W 17:57:30 10° SSW
MOS 1 4.3 17:49:33 10° SSE 17:55:08 60° ENE 18:00:43 10° N
CZ-4 R/B 4.3 17:51:13 10° SSE 17:55:20 76° ENE 17:59:30 10° N
PSLV R/B 3.6 17:52:43 10° WSW 17:55:49 51° S 17:57:06 28° ESE
NOSS 3-2 (A) 4.1 17:50:10 10° NW 17:57:44 86° WSW 18:05:58 10° SSE
Abrixas rocket 3.1 17:55:37 10° WNW 17:58:38 34° N 17:59:18 30° NNE
USA 116 3.1 17:57:39 15° N 18:00:11 81° WNW 18:03:16 10° SSW
Cosmos 2266 Rocket 4.1 17:56:55 10° N 18:03:00 77° W 18:09:10 10° S
YAOGAN 1 2.6 18:00:39 10° S 18:04:58 80° W 18:09:19 10° NNW
NOSS 3-2 (C) 4.0 17:58:36 10° NW 18:06:09 85° NE 18:14:25 10° SE
SL-24 R/B - RUBIN 2 4.5 18:00:38 10° SSW 18:06:38 52° ESE 18:09:29 28° ENE
ISS -0.4 18:07:15 10° WSW 18:08:17 11° SW 18:09:19 10° SSW
DELTA 2 R/B (1) 4.2 18:03:26 10° W 18:08:49 52° S 18:12:35 19° ESE
ATLAS 3B R/B 3.9 18:03:18 10° NW 18:09:30 42° WSW 18:15:33 10° S
NOAA 12 4.0 18:05:49 10° SSE 18:11:00 62° ENE 18:16:11 10° N
ATLAS 2AS CENTAUR R/B 4.0 18:06:17 10° WSW 18:13:46 44° NW 18:20:46 13° NNE
RESURS DK-1 3.2 18:16:36 10° S 18:19:43 33° SE 18:19:43 33° SE
COSMO-SKYMED 1 2.5 18:17:13 16° NNE 18:20:40 87° WNW 18:25:00 10° SSW
USA 215 4.1 18:15:06 10° SSE 18:21:24 49° SW 18:27:43 10° WNW
SJ 16-02 2.6 18:19:37 10° SW 18:23:45 39° WNW 18:27:34 12° N
SL-16 R/B 3.9 18:22:38 10° SSE 18:24:29 17° SE 18:24:29 17° SE
FENGYUN 3A 3.5 18:21:41 10° SSE 18:27:04 86° ENE 18:32:27 10° NNW
Cosmos 2263 Rocket 3.6 18:22:42 10° N 18:25:19 21° NNE 18:25:19 21° NNE
S3M 4.2 18:22:02 10° SSE 18:27:42 42° E 18:28:55 37° ENE
DMSP B5D1-3 4.4 18:26:58 28° NNE 18:29:41 67° ESE 18:34:45 10° S
Cosmos 2322 Rocket 3.9 18:26:50 10° SSE 18:28:30 17° SE 18:28:30 17° SE
Cosmos 1515 4.3 18:29:35 10° SSW 18:33:18 55° W 18:35:20 24° N
EO 1 Del DPAF 3.3 18:32:39 43° N 18:33:47 75° WNW 18:37:35 10° SSW
NOSS 3-4 (A) 3.5 18:28:23 10° SW 18:34:37 83° NW 18:37:52 31° NNE
NOSS 3-4 (C) 3.5 18:28:28 10° SW 18:34:42 84° NW 18:37:56 32° NNE
COSMOS 2455 4.5 18:31:01 10° N 18:33:46 18° NNE 18:33:46 18° NNE
Cosmos 2360 4.1 18:30:27 10° SSW 18:36:08 70° ESE 18:38:00 43° NE
CZ-4 R/B 3.9 18:35:52 10° SW 18:38:53 21° W 18:41:58 10° NW
Cosmos 1244 Rocket 4.4 18:33:11 10° N 18:39:21 88° W 18:45:33 10° S
Cosmos 2344 4.3 18:35:27 10° SSE 18:41:25 30° ESE 18:41:25 30° ESE
NOSS 2-2 (D) 4.3 18:38:27 10° SSW 18:40:59 35° SSE 18:40:59 35° SSE
BREEZE-M DEB (TANK) 4.1 18:42:23 10° WNW 18:45:38 72° SSW 18:49:07 29° SE
Cosmos 1025 Rocket 3.7 18:41:30 10° SSW 18:45:42 53° W 18:48:04 24° N
Cosmos 1697 Rocket 3.3 18:40:33 10° SW 18:46:05 55° WNW 18:49:26 24° N
ERS-2 3.4 18:43:25 10° S 18:46:53 40° W 18:50:23 10° NNW
CENTAUR R/B 3.0 18:41:19 10° NW 18:49:11 74° NE 18:54:02 29° SE
SPOT 3 Rocket 4.1 18:45:28 10° S 18:50:33 57° WSW 18:55:39 10° NNW
Okean 1-7 Rocket 4.0 18:48:41 10° SSW 18:53:01 60° W 18:54:25 40° NNW
Cosmos 2084 3.9 18:51:07 10° SW 18:54:56 51° WNW 18:54:56 51° WNW
NOSS 2-2 (E) 4.2 18:53:46 10° SSW 18:56:30 45° SSW 18:56:30 45° SSW
SL-08 R/B 4.3 18:52:57 10° N 18:59:16 87° E 19:05:27 10° S
Thor Agena Rocket 4.4 19:01:50 37° SSE 19:01:50 37° SSE 19:05:05 10° S
Cosmos 1553 Rocket 3.9 18:54:04 10° S 19:00:29 84° E 19:03:58 29° N
Cosmos 2251 Rocket 3.5 18:56:47 10° NNW 19:02:05 79° WSW 19:03:44 45° S
Cosmos 1417 Rocket 4.5 18:57:42 10° S 19:03:52 80° W 19:08:21 20° N
ALOS 4.0 19:07:34 10° SSW 19:11:44 32° W 19:15:55 10° NNW
Cosmos 1745 Rocket 3.8 19:06:23 10° N 19:12:37 88° E 19:18:54 10° S
Gbstr 26 Del rocket 4.5 19:10:57 10° WSW 19:18:44 60° NNW 19:19:47 55° NNE
Cosmos 1980 Rocket 3.1 19:22:18 10° SW 19:27:42 45° WNW 19:28:41 41° NNW
SL-16 R/B 4.4 20:04:56 10° SW 20:06:25 19° SW 20:06:25 19° SW
